Time,TemperatureF,DewpointF,PressureIn,WindDirection,WindDirectionDegrees,WindSpeedMPH,WindSpeedGustMPH,Humidity,HourlyPrecipIn,Conditions,Clouds,dailyrainin,SoftwareType,DateUTC
2013-09-29 00:14:00,37.6,37.1,29.14,SW,225,0.0,-999.0,98,-99.99,,,0.00,Acu-Link.com,2013-09-29 08:14:00,
2013-09-29 00:29:00,37.6,37.1,29.14,SW,225,0.0,-999.0,98,-99.99,,,0.01,Acu-Link.com,2013-09-29 08:29:00,
2013-09-29 00:45:00,37.4,36.9,29.14,WSW,247,0.0,-999.0,98,-99.99,,,0.01,Acu-Link.com,2013-09-29 08:45:00,
2013-09-29 01:00:00,37.4,36.9,29.15,South,180,0.0,-999.0,98,-99.99,,,0.01,Acu-Link.com,2013-09-29 09:00:00,
2013-09-29 01:16:00,37.4,36.9,29.16,SSW,202,0.0,-999.0,98,-99.99,,,0.02,Acu-Link.com,2013-09-29 09:16:00,
2013-09-29 01:31:00,37.2,36.7,29.16,SW,225,0.0,-999.0,98,-99.99,,,0.02,Acu-Link.com,2013-09-29 09:31:00,
2013-09-29 01:46:00,37.2,36.7,29.16,WSW,247,0.0,-999.0,98,-99.99,,,0.02,Acu-Link.com,2013-09-29 09:46:00,
2013-09-29 02:02:00,37.0,36.5,29.16,SW,225,0.0,-999.0,98,-99.99,,,0.02,Acu-Link.com,2013-09-29 10:02:00,
2013-09-29 02:17:00,36.9,36.4,29.16,South,180,0.0,-999.0,98,-99.99,,,0.02,Acu-Link.com,2013-09-29 10:17:00,
2013-09-29 02:33:00,36.9,36.4,29.15,SW,225,0.0,-999.0,98,-99.99,,,0.02,Acu-Link.com,2013-09-29 10:33:00,
2013-09-29 02:49:00,36.9,36.4,29.16,SW,225,0.0,-999.0,98,-99.99,,,0.02,Acu-Link.com,2013-09-29 10:49:00,
2013-09-29 03:04:00,36.7,36.2,29.17,South,180,0.0,-999.0,98,-99.99,,,0.03,Acu-Link.com,2013-09-29 11:04:00,
2013-09-29 03:20:00,36.7,36.2,29.17,SSE,157,0.0,-999.0,98,-99.99,,,0.03,Acu-Link.com,2013-09-29 11:20:00,
2013-09-29 03:35:00,36.7,36.2,29.18,ESE,112,0.0,-999.0,98,-99.99,,,0.03,Acu-Link.com,2013-09-29 11:35:00,
2013-09-29 03:50:00,36.5,36.0,29.18,SSE,157,0.0,-999.0,98,-99.99,,,0.03,Acu-Link.com,2013-09-29 11:50:00,
2013-09-29 04:05:00,36.5,36.0,29.18,SSE,157,0.0,-999.0,98,-99.99,,,0.03,Acu-Link.com,2013-09-29 12:05:00,
2013-09-29 04:20:00,36.3,35.8,29.19,SW,225,0.0,-999.0,98,-99.99,,,0.03,Acu-Link.com,2013-09-29 12:20:00,
2013-09-29 04:36:00,36.3,35.8,29.19,SW,225,0.0,-999.0,98,-99.99,,,0.03,Acu-Link.com,2013-09-29 12:36:00,
2013-09-29 04:51:00,36.1,35.6,29.20,West,270,0.0,-999.0,98,-99.99,,,0.03,Acu-Link.com,2013-09-29 12:51:00,
2013-09-29 05:06:00,36.1,35.6,29.21,WSW,247,2.2,-999.0,98,-99.99,,,0.03,Acu-Link.com,2013-09-29 13:06:00,
2013-09-29 05:21:00,36.3,35.8,29.21,WSW,247,3.7,-999.0,98,-99.99,,,0.03,Acu-Link.com,2013-09-29 13:21:00,
2013-09-29 05:36:00,36.1,35.6,29.21,West,270,2.7,-999.0,98,-99.99,,,0.03,Acu-Link.com,2013-09-29 13:36:00,
2013-09-29 05:52:00,36.1,35.6,29.21,WSW,247,2.7,-999.0,98,-99.99,,,0.03,Acu-Link.com,2013-09-29 13:52:00,
2013-09-29 06:07:00,36.0,35.5,29.22,WSW,247,3.7,-999.0,98,-99.99,,,0.03,Acu-Link.com,2013-09-29 14:07:00,
2013-09-29 06:22:00,35.6,35.1,29.22,WSW,247,4.7,-999.0,98,-99.99,,,0.04,Acu-Link.com,2013-09-29 14:22:00,
2013-09-29 06:37:00,35.1,34.6,29.22,WSW,247,3.7,-999.0,98,-99.99,,,0.06,Acu-Link.com,2013-09-29 14:37:00,
2013-09-29 06:53:00,34.9,34.4,29.23,West,270,6.3,-999.0,98,-99.99,,,0.06,Acu-Link.com,2013-09-29 14:53:00,
2013-09-29 07:08:00,34.5,34.0,29.24,WSW,247,4.2,-999.0,98,-99.99,,,0.06,Acu-Link.com,2013-09-29 15:08:00,
2013-09-29 07:23:00,34.3,33.8,29.24,West,270,6.8,-999.0,98,-99.99,,,0.07,Acu-Link.com,2013-09-29 15:23:00,
2013-09-29 07:38:00,34.2,33.7,29.25,WSW,247,4.2,-999.0,98,-99.99,,,0.07,Acu-Link.com,2013-09-29 15:38:00,
2013-09-29 07:54:00,34.0,33.5,29.25,WSW,247,3.7,-999.0,98,-99.99,,,0.07,Acu-Link.com,2013-09-29 15:54:00,
2013-09-29 08:09:00,34.0,33.5,29.26,SW,225,2.7,-999.0,98,-99.99,,,0.07,Acu-Link.com,2013-09-29 16:09:00,
2013-09-29 08:24:00,34.0,33.5,29.26,WSW,247,4.7,-999.0,98,-99.99,,,0.07,Acu-Link.com,2013-09-29 16:24:00,
2013-09-29 08:39:00,34.0,33.5,29.26,WSW,247,3.2,-999.0,98,-99.99,,,0.07,Acu-Link.com,2013-09-29 16:39:00,
2013-09-29 08:54:00,34.0,33.5,29.27,WSW,247,3.7,-999.0,98,-99.99,,,0.07,Acu-Link.com,2013-09-29 16:54:00,
2013-09-29 09:10:00,34.0,33.5,29.28,West,270,3.2,-999.0,98,-99.99,,,0.07,Acu-Link.com,2013-09-29 17:10:00,
2013-09-29 09:25:00,34.3,33.8,29.28,WSW,247,4.2,-999.0,98,-99.99,,,0.07,Acu-Link.com,2013-09-29 17:25:00,
2013-09-29 09:40:00,34.7,34.2,29.28,SW,225,3.7,-999.0,98,-99.99,,,0.07,Acu-Link.com,2013-09-29 17:40:00,
2013-09-29 09:56:00,34.7,34.2,29.29,West,270,2.7,-999.0,98,-99.99,,,0.07,Acu-Link.com,2013-09-29 17:56:00,
2013-09-29 10:11:00,34.9,34.4,29.29,SSW,202,3.7,-999.0,98,-99.99,,,0.07,Acu-Link.com,2013-09-29 18:11:00,
2013-09-29 10:26:00,35.4,34.9,29.29,SW,225,2.2,-999.0,98,-99.99,,,0.07,Acu-Link.com,2013-09-29 18:26:00,
2013-09-29 10:41:00,35.2,34.7,29.30,SW,225,3.2,-999.0,98,-99.99,,,0.07,Acu-Link.com,2013-09-29 18:41:00,
2013-09-29 10:57:00,35.6,35.1,29.30,SSW,202,4.2,-999.0,98,-99.99,,,0.07,Acu-Link.com,2013-09-29 18:57:00,
2013-09-29 11:12:00,36.1,35.6,29.30,SSW,202,1.7,-999.0,98,-99.99,,,0.07,Acu-Link.com,2013-09-29 19:12:00,
2013-09-29 11:27:00,36.1,35.6,29.30,SW,225,4.7,-999.0,98,-99.99,,,0.07,Acu-Link.com,2013-09-29 19:27:00,
2013-09-29 11:42:00,37.0,36.5,29.30,West,270,4.2,-999.0,98,-99.99,,,0.07,Acu-Link.com,2013-09-29 19:42:00,
2013-09-29 11:58:00,36.1,35.6,29.31,SSW,202,4.2,-999.0,98,-99.99,,,0.07,Acu-Link.com,2013-09-29 19:58:00,
2013-09-29 12:13:00,36.5,36.0,29.32,WSW,247,4.7,-999.0,98,-99.99,,,0.07,Acu-Link.com,2013-09-29 20:13:00,
2013-09-29 12:28:00,37.2,36.7,29.32,WSW,247,4.2,-999.0,98,-99.99,,,0.07,Acu-Link.com,2013-09-29 20:28:00,
2013-09-29 12:43:00,37.8,37.3,29.32,SSW,202,3.2,-999.0,98,-99.99,,,0.07,Acu-Link.com,2013-09-29 20:43:00,
2013-09-29 12:59:00,37.9,37.4,29.32,SW,225,3.7,-999.0,98,-99.99,,,0.07,Acu-Link.com,2013-09-29 20:59:00,
2013-09-29 13:14:00,37.2,36.7,29.33,West,270,4.7,-999.0,98,-99.99,,,0.07,Acu-Link.com,2013-09-29 21:14:00,
2013-09-29 13:29:00,37.0,36.5,29.33,SW,225,5.8,-999.0,98,-99.99,,,0.07,Acu-Link.com,2013-09-29 21:29:00,
2013-09-29 13:44:00,36.9,36.4,29.33,SW,225,5.8,-999.0,98,-99.99,,,0.07,Acu-Link.com,2013-09-29 21:44:00,
2013-09-29 14:00:00,36.7,36.2,29.33,West,270,4.7,-999.0,98,-99.99,,,0.07,Acu-Link.com,2013-09-29 22:00:00,
2013-09-29 14:15:00,37.2,36.7,29.33,WSW,247,5.3,-999.0,98,-99.99,,,0.07,Acu-Link.com,2013-09-29 22:15:00,
2013-09-29 14:30:00,38.1,37.6,29.33,WSW,247,4.7,-999.0,98,-99.99,,,0.07,Acu-Link.com,2013-09-29 22:30:00,
2013-09-29 14:45:00,38.1,37.6,29.34,NW,315,3.2,-999.0,98,-99.99,,,0.07,Acu-Link.com,2013-09-29 22:45:00,
2013-09-29 15:01:00,37.9,37.4,29.34,West,270,5.8,-999.0,98,-99.99,,,0.07,Acu-Link.com,2013-09-29 23:01:00,
2013-09-29 15:16:00,37.9,37.4,29.34,WSW,247,2.7,-999.0,98,-99.99,,,0.07,Acu-Link.com,2013-09-29 23:16:00,
2013-09-29 15:31:00,38.1,37.6,29.34,WSW,247,5.8,-999.0,98,-99.99,,,0.07,Acu-Link.com,2013-09-29 23:31:00,
2013-09-29 15:46:00,38.3,37.8,29.34,West,270,6.3,-999.0,98,-99.99,,,0.07,Acu-Link.com,2013-09-29 23:46:00,
2013-09-29 16:02:00,37.9,37.4,29.35,WSW,247,4.7,-999.0,98,-99.99,,,0.07,Acu-Link.com,2013-09-30 00:02:00,
2013-09-29 16:18:00,37.2,36.7,29.36,SSW,202,6.8,-999.0,98,-99.99,,,0.07,Acu-Link.com,2013-09-30 00:18:00,
2013-09-29 16:33:00,37.0,36.5,29.36,SW,225,7.3,-999.0,98,-99.99,,,0.07,Acu-Link.com,2013-09-30 00:33:00,
2013-09-29 16:48:00,36.7,36.2,29.37,WSW,247,7.8,-999.0,98,-99.99,,,0.07,Acu-Link.com,2013-09-30 00:48:00,
2013-09-29 17:03:00,36.5,36.0,29.37,West,270,5.3,-999.0,98,-99.99,,,0.07,Acu-Link.com,2013-09-30 01:03:00,
2013-09-29 17:19:00,36.7,36.2,29.38,SW,225,5.3,-999.0,98,-99.99,,,0.07,Acu-Link.com,2013-09-30 01:19:00,
2013-09-29 17:34:00,36.5,36.0,29.37,SW,225,5.3,-999.0,98,-99.99,,,0.07,Acu-Link.com,2013-09-30 01:34:00,
2013-09-29 17:49:00,36.3,35.8,29.38,WSW,247,4.2,-999.0,98,-99.99,,,0.07,Acu-Link.com,2013-09-30 01:49:00,
2013-09-29 18:04:00,36.3,35.8,29.38,WSW,247,3.7,-999.0,98,-99.99,,,0.07,Acu-Link.com,2013-09-30 02:04:00,
2013-09-29 18:19:00,36.3,35.8,29.38,WSW,247,5.3,-999.0,98,-99.99,,,0.07,Acu-Link.com,2013-09-30 02:19:00,
2013-09-29 18:35:00,36.0,35.5,29.39,WSW,247,5.8,-999.0,98,-99.99,,,0.07,Acu-Link.com,2013-09-30 02:35:00,
2013-09-29 18:50:00,36.0,35.5,29.39,West,270,6.3,-999.0,98,-99.99,,,0.07,Acu-Link.com,2013-09-30 02:50:00,
2013-09-29 19:05:00,35.8,35.3,29.39,West,270,3.7,-999.0,98,-99.99,,,0.07,Acu-Link.com,2013-09-30 03:05:00,
2013-09-29 19:20:00,35.8,35.3,29.38,WSW,247,2.7,-999.0,98,-99.99,,,0.07,Acu-Link.com,2013-09-30 03:20:00,
2013-09-29 19:36:00,35.6,35.1,29.39,West,270,6.8,-999.0,98,-99.99,,,0.07,Acu-Link.com,2013-09-30 03:36:00,
2013-09-29 19:51:00,35.2,34.7,29.38,WSW,247,5.8,-999.0,98,-99.99,,,0.07,Acu-Link.com,2013-09-30 03:51:00,
2013-09-29 20:06:00,35.6,35.1,29.39,West,270,3.7,-999.0,98,-99.99,,,0.07,Acu-Link.com,2013-09-30 04:06:00,
2013-09-29 20:21:00,35.4,34.9,29.40,WSW,247,3.2,-999.0,98,-99.99,,,0.07,Acu-Link.com,2013-09-30 04:21:00,
2013-09-29 20:37:00,35.2,34.7,29.40,WSW,247,4.2,-999.0,98,-99.99,,,0.07,Acu-Link.com,2013-09-30 04:37:00,
2013-09-29 20:52:00,35.2,34.7,29.40,SW,225,4.2,-999.0,98,-99.99,,,0.07,Acu-Link.com,2013-09-30 04:52:00,
2013-09-29 21:07:00,35.2,34.7,29.40,WSW,247,5.3,-999.0,98,-99.99,,,0.07,Acu-Link.com,2013-09-30 05:07:00,
2013-09-29 21:22:00,34.9,34.4,29.41,SSW,202,3.2,-999.0,98,-99.99,,,0.07,Acu-Link.com,2013-09-30 05:22:00,
2013-09-29 21:37:00,34.7,34.2,29.40,SW,225,3.7,-999.0,98,-99.99,,,0.07,Acu-Link.com,2013-09-30 05:37:00,
2013-09-29 22:08:00,34.5,34.0,29.41,WSW,247,3.7,-999.0,98,-99.99,,,0.07,Acu-Link.com,2013-09-30 06:08:00,
2013-09-29 22:23:00,34.3,33.8,29.41,SSW,202,2.2,-999.0,98,-99.99,,,0.07,Acu-Link.com,2013-09-30 06:23:00,
2013-09-29 22:39:00,34.3,33.8,29.41,South,180,2.7,-999.0,98,-99.99,,,0.07,Acu-Link.com,2013-09-30 06:39:00,
2013-09-29 22:54:00,34.3,33.8,29.42,SW,225,2.7,-999.0,98,-99.99,,,0.07,Acu-Link.com,2013-09-30 06:54:00,
2013-09-29 23:09:00,34.3,33.8,29.42,WSW,247,1.7,-999.0,98,-99.99,,,0.07,Acu-Link.com,2013-09-30 07:09:00,
2013-09-29 23:24:00,34.3,33.8,29.42,WSW,247,2.2,-999.0,98,-99.99,,,0.07,Acu-Link.com,2013-09-30 07:24:00,
2013-09-29 23:39:00,34.2,33.7,29.43,SSW,202,2.2,-999.0,98,-99.99,,,0.07,Acu-Link.com,2013-09-30 07:39:00,
2013-09-29 23:55:00,34.2,33.7,29.43,SW,225,1.7,-999.0,98,-99.99,,,0.07,Acu-Link.com,2013-09-30 07:55:00,